Radiation Dose at Monitoring Post of Fukushima Daini Nuclear Power Station
Date,Time,MP-1(microSv/h),MP-2(microSv/h),MP-3(microSv/h),MP-4(microSv/h),MP-5(microSv/h),MP-6(microSv/h),MP-7(microSv/h),Wind Direction,Wind Velocity(m/s),Rain
2017/07/28,00:00,0.356,0.216,0.355,0.337,0.320,0.176,0.108,north,3.8,No
2017/07/28,00:10,0.352,0.219,0.359,0.332,0.324,0.176,0.109,north-northwest,3.3,No
2017/07/28,00:20,0.355,0.217,0.359,0.337,0.324,0.175,0.109,north,3.2,No
2017/07/28,00:30,0.357,0.218,0.357,0.338,0.320,0.177,0.107,north-northwest,3.1,No
2017/07/28,00:40,0.354,0.218,0.359,0.332,0.325,0.175,0.109,north,3.0,No
2017/07/28,00:50,0.356,0.216,0.358,0.336,0.323,0.176,0.109,north,3.1,No
2017/07/28,01:00,0.356,0.217,0.359,0.337,0.320,0.176,0.108,north,2.8,No
2017/07/28,01:10,0.353,0.217,0.361,0.333,0.326,0.175,0.109,north,3.0,No
2017/07/28,01:20,0.356,0.217,0.357,0.337,0.321,0.176,0.108,north-northeast,3.1,No
2017/07/28,01:30,0.357,0.217,0.358,0.335,0.320,0.177,0.108,north-northeast,3.9,No
2017/07/28,01:40,0.354,0.217,0.360,0.333,0.325,0.176,0.109,north,3.7,No
2017/07/28,01:50,0.356,0.216,0.356,0.338,0.322,0.177,0.109,north,3.6,No
2017/07/28,02:00,0.358,0.218,0.358,0.334,0.321,0.176,0.108,north,3.6,No
2017/07/28,02:10,0.354,0.218,0.361,0.333,0.325,0.175,0.109,north,3.7,No
2017/07/28,02:20,0.354,0.214,0.357,0.337,0.324,0.175,0.108,north,2.5,No
2017/07/28,02:30,0.357,0.219,0.359,0.335,0.321,0.176,0.108,north,2.5,No
2017/07/28,02:40,0.353,0.217,0.360,0.333,0.325,0.174,0.108,north-northeast,3.0,No
2017/07/28,02:50,0.355,0.216,0.357,0.337,0.321,0.176,0.107,north,2.4,No
2017/07/28,03:00,0.357,0.217,0.358,0.334,0.322,0.177,0.109,north,1.9,No
2017/07/28,03:10,0.354,0.216,0.360,0.334,0.325,0.176,0.108,north,2.5,No
2017/07/28,03:20,0.355,0.216,0.357,0.335,0.323,0.175,0.108,north,2.8,No
2017/07/28,03:30,0.356,0.219,0.360,0.334,0.322,0.176,0.109,north,3.1,No
2017/07/28,03:40,0.353,0.217,0.360,0.335,0.324,0.176,0.109,north,3.5,No
2017/07/28,03:50,0.357,0.217,0.356,0.337,0.323,0.175,0.108,north,3.2,No
2017/07/28,04:00,0.356,0.218,0.360,0.332,0.320,0.176,0.109,north,3.4,No
2017/07/28,04:10,0.354,0.216,0.359,0.335,0.325,0.175,0.109,north,2.2,No
2017/07/28,04:20,0.356,0.216,0.357,0.336,0.323,0.175,0.107,north,3.0,No
2017/07/28,04:30,0.358,0.217,0.359,0.333,0.320,0.176,0.108,north,2.8,No
2017/07/28,04:40,0.353,0.215,0.358,0.334,0.322,0.175,0.109,north,1.9,No
2017/07/28,04:50,0.355,0.218,0.355,0.336,0.321,0.174,0.107,north,1.5,No
2017/07/28,05:00,0.357,0.217,0.359,0.332,0.321,0.176,0.109,north-northwest,1.6,No
2017/07/28,05:10,0.352,0.215,0.357,0.335,0.324,0.176,0.108,north-northwest,1.7,No
2017/07/28,05:20,0.355,0.217,0.355,0.335,0.321,0.175,0.108,north-northwest,1.4,No
2017/07/28,05:30,0.356,0.218,0.361,0.334,0.321,0.177,0.109,north,2.2,No
2017/07/28,05:40,0.353,0.217,0.357,0.337,0.323,0.176,0.108,north-northwest,2.4,No
2017/07/28,05:50,0.354,0.218,0.357,0.336,0.320,0.175,0.108,north-northwest,1.9,No
2017/07/28,06:00,0.355,0.217,0.361,0.332,0.320,0.177,0.108,northwest,1.4,No
2017/07/28,06:10,0.353,0.216,0.357,0.337,0.324,0.175,0.110,north,0.9,No
2017/07/28,06:20,0.357,0.218,0.356,0.336,0.321,0.174,0.107,-,CALM,No
2017/07/28,06:30,0.358,0.217,0.362,0.333,0.320,0.177,0.108,north,1.1,No
2017/07/28,06:40,0.354,0.214,0.357,0.334,0.324,0.176,0.108,north-northwest,1.8,No
2017/07/28,06:50,0.356,0.218,0.354,0.336,0.322,0.176,0.108,north-northwest,1.5,No
2017/07/28,07:00,0.359,0.218,0.359,0.334,0.320,0.175,0.108,north,0.9,No
2017/07/28,07:10,0.354,0.217,0.359,0.332,0.321,0.177,0.109,north-northeast,1.3,No
2017/07/28,07:20,0.352,0.215,0.357,0.337,0.325,0.176,0.109,northeast,1.6,No
2017/07/28,07:30,0.356,0.216,0.356,0.336,0.322,0.175,0.107,north-northeast,1.4,No
2017/07/28,07:40,0.356,0.217,0.359,0.333,0.320,0.174,0.108,northeast,1.6,No
2017/07/28,07:50,0.354,0.216,0.358,0.330,0.319,0.175,0.108,east-northeast,1.9,No
2017/07/28,08:00,0.354,0.215,0.355,0.337,0.322,0.175,0.108,north-northeast,1.3,No
2017/07/28,08:10,0.356,0.216,0.357,0.335,0.323,0.174,0.107,north-northeast,0.8,No
2017/07/28,08:20,0.354,0.217,0.359,0.333,0.322,0.175,0.106,northeast,0.7,No
2017/07/28,08:30,0.351,0.217,0.358,0.332,0.321,0.175,0.107,northeast,1.0,No
2017/07/28,08:40,0.351,0.216,0.355,0.331,0.321,0.176,0.104,northeast,0.6,No
2017/07/28,08:50,0.357,0.215,0.354,0.337,0.320,0.175,0.105,-,CALM,No
2017/07/28,09:00,0.356,0.214,0.356,0.335,0.320,0.176,0.106,east-southeast,0.5,No
2017/07/28,09:10,0.355,0.214,0.360,0.333,0.319,0.174,0.106,south-southeast,1.0,No
2017/07/28,09:20,0.352,0.215,0.357,0.332,0.319,0.175,0.106,south-southeast,1.3,No
2017/07/28,09:30,0.350,0.216,0.356,0.332,0.319,0.175,0.106,south-southeast,1.4,No
2017/07/28,09:40,0.351,0.215,0.353,0.333,0.319,0.176,0.106,south-southeast,1.9,No
2017/07/28,09:50,0.353,0.215,0.354,0.334,0.321,0.176,0.107,southeast,2.1,No
2017/07/28,10:00,0.353,0.214,0.359,0.333,0.321,0.176,0.105,east,1.8,No
2017/07/28,10:10,0.351,0.216,0.359,0.334,0.322,0.175,0.106,east,2.8,No
2017/07/28,10:20,0.352,0.215,0.357,0.335,0.321,0.176,0.107,east,2.8,No
2017/07/28,10:30,0.358,0.215,0.356,0.333,0.321,0.176,0.107,east,1.6,No
2017/07/28,10:40,0.357,0.214,0.355,0.333,0.320,0.175,0.106,east-northeast,2.2,No
2017/07/28,10:50,0.355,0.215,0.353,0.331,0.322,0.175,0.107,east,1.9,No
2017/07/28,11:00,0.353,0.214,0.355,0.333,0.322,0.175,0.106,southeast,1.1,No
2017/07/28,11:10,0.351,0.215,0.355,0.333,0.321,0.176,0.106,east-northeast,1.0,No
2017/07/28,11:20,0.352,0.215,0.361,0.332,0.320,0.176,0.106,east-southeast,1.4,No
2017/07/28,11:30,0.353,0.215,0.360,0.333,0.320,0.176,0.106,east,1.6,No
2017/07/28,11:40,0.358,0.215,0.359,0.332,0.320,0.177,0.106,east-northeast,1.9,No
2017/07/28,11:50,0.357,0.216,0.357,0.337,0.321,0.176,0.107,south-southeast,1.2,No
2017/07/28,12:00,0.356,0.216,0.357,0.339,0.321,0.175,0.106,southeast,1.7,No
2017/07/28,12:10,0.354,0.216,0.357,0.337,0.322,0.175,0.106,east,2.1,No
2017/07/28,12:20,0.352,0.215,0.357,0.335,0.320,0.176,0.106,east,1.9,No
2017/07/28,12:30,0.352,0.216,0.356,0.335,0.322,0.175,0.107,east,2.0,No
2017/07/28,12:40,0.358,0.218,0.356,0.333,0.322,0.176,0.107,east,1.3,No
2017/07/28,12:50,0.357,0.218,0.356,0.332,0.321,0.176,0.108,northeast,1.1,No
2017/07/28,13:00,0.356,0.217,0.355,0.333,0.321,0.177,0.107,northeast,1.4,No
2017/07/28,13:10,0.354,0.217,0.360,0.332,0.321,0.176,0.107,east-northeast,1.4,No
2017/07/28,13:20,0.352,0.216,0.360,0.333,0.322,0.175,0.107,east-northeast,1.1,No
2017/07/28,13:30,0.356,0.215,0.359,0.334,0.322,0.175,0.107,east-southeast,1.5,No
2017/07/28,13:40,0.357,0.216,0.360,0.334,0.322,0.175,0.108,east,1.0,No
2017/07/28,13:50,0.355,0.215,0.356,0.335,0.323,0.176,0.107,east,1.0,No
2017/07/28,14:00,0.355,0.216,0.355,0.332,0.323,0.176,0.107,south-southeast,1.1,No
2017/07/28,14:10,0.353,0.218,0.355,0.337,0.321,0.174,0.108,-,CALM,No
2017/07/28,14:20,0.358,0.217,0.355,0.338,0.320,0.176,0.108,east-southeast,0.8,No
2017/07/28,14:30,0.358,0.216,0.355,0.337,0.322,0.177,0.107,east-southeast,1.1,No
2017/07/28,14:40,0.354,0.216,0.359,0.335,0.321,0.176,0.107,south-southeast,1.1,No
2017/07/28,14:50,0.351,0.215,0.361,0.333,0.321,0.175,0.106,east-southeast,1.5,No
2017/07/28,15:00,0.355,0.216,0.361,0.333,0.322,0.175,0.105,east-southeast,1.4,No
2017/07/28,15:10,0.357,0.214,0.359,0.332,0.323,0.176,0.105,south-southeast,1.7,No
2017/07/28,15:20,0.357,0.218,0.357,0.337,0.323,0.176,0.105,south,3.1,No
2017/07/28,15:30,0.354,0.218,0.357,0.339,0.321,0.177,0.107,south,4.2,No
2017/07/28,15:40,0.353,0.217,0.357,0.337,0.323,0.178,0.107,south-southwest,4.3,No
2017/07/28,15:50,0.353,0.217,0.356,0.333,0.323,0.177,0.108,south,5.4,No
2017/07/28,16:00,0.359,0.216,0.356,0.333,0.321,0.176,0.107,south,3.9,No
2017/07/28,16:10,0.357,0.216,0.356,0.335,0.324,0.176,0.107,south,5.0,No
2017/07/28,16:20,0.353,0.218,0.360,0.337,0.322,0.176,0.107,south-southeast,3.2,No
2017/07/28,16:30,0.354,0.218,0.363,0.335,0.322,0.176,0.108,south,4.7,No
2017/07/28,16:40,0.358,0.218,0.360,0.334,0.323,0.176,0.107,south-southeast,4.7,No
2017/07/28,16:50,0.355,0.215,0.357,0.337,0.321,0.177,0.108,south-southeast,4.7,No
2017/07/28,17:00,0.352,0.217,0.359,0.339,0.325,0.175,0.108,south-southeast,5.2,No
2017/07/28,17:10,0.356,0.217,0.363,0.335,0.325,0.176,0.108,south,3.6,No
2017/07/28,17:20,0.358,0.217,0.361,0.334,0.323,0.176,0.106,south,4.6,No
2017/07/28,17:30,0.355,0.216,0.358,0.337,0.321,0.176,0.108,south,4.6,No
2017/07/28,17:40,0.353,0.217,0.358,0.336,0.319,0.175,0.108,south,4.0,No
2017/07/28,17:50,0.359,0.218,0.363,0.336,0.323,0.175,0.107,south,4.3,No
2017/07/28,18:00,0.358,0.216,0.360,0.336,0.324,0.176,0.107,south-southeast,3.9,No
2017/07/28,18:10,0.354,0.217,0.357,0.338,0.324,0.176,0.108,south-southeast,2.9,No
2017/07/28,18:20,0.353,0.218,0.362,0.337,0.321,0.175,0.108,south-southeast,4.0,No
2017/07/28,18:30,0.357,0.217,0.360,0.335,0.326,0.176,0.108,south,4.6,No
2017/07/28,18:40,0.354,0.216,0.358,0.337,0.325,0.177,0.109,south,1.4,No
2017/07/28,18:50,0.353,0.219,0.361,0.337,0.322,0.175,0.108,south,3.9,No
2017/07/28,19:00,0.359,0.217,0.361,0.334,0.323,0.175,0.108,south-southwest,1.1,No
2017/07/28,19:10,0.359,0.216,0.358,0.337,0.326,0.177,0.108,south,2.3,No
2017/07/28,19:20,0.353,0.217,0.358,0.338,0.323,0.176,0.109,south,3.9,No
2017/07/28,19:30,0.355,0.216,0.363,0.336,0.321,0.175,0.107,south,5.3,No
2017/07/28,19:40,0.358,0.216,0.360,0.335,0.325,0.177,0.107,south,6.0,No
2017/07/28,19:50,0.356,0.217,0.356,0.339,0.323,0.176,0.108,south,4.7,No
2017/07/28,20:00,0.354,0.218,0.361,0.336,0.320,0.175,0.107,south-southwest,4.4,No
2017/07/28,20:10,0.358,0.215,0.360,0.333,0.324,0.175,0.108,south-southwest,2.7,No
2017/07/28,20:20,0.356,0.217,0.358,0.339,0.322,0.176,0.107,south-southwest,4.5,No
2017/07/28,20:30,0.353,0.218,0.360,0.337,0.320,0.176,0.107,west-southwest,1.5,No
2017/07/28,20:40,0.356,0.216,0.363,0.334,0.323,0.175,0.107,southwest,0.5,No
2017/07/28,20:50,0.357,0.217,0.358,0.335,0.324,0.177,0.108,south-southwest,1.5,No
2017/07/28,21:00,0.355,0.219,0.358,0.337,0.322,0.176,0.108,south,4.2,No
2017/07/28,21:10,0.353,0.217,0.361,0.335,0.321,0.175,0.107,south,5.2,No
2017/07/28,21:20,0.358,0.216,0.360,0.334,0.326,0.175,0.108,south,5.3,No
2017/07/28,21:30,0.355,0.218,0.356,0.337,0.323,0.176,0.109,south,5.3,No
2017/07/28,21:40,0.353,0.217,0.361,0.336,0.321,0.175,0.107,south,4.0,No
2017/07/28,21:50,0.359,0.215,0.361,0.333,0.324,0.175,0.107,south,4.2,No
2017/07/28,22:00,0.356,0.218,0.358,0.338,0.324,0.177,0.108,south,3.6,No
2017/07/28,22:10,0.353,0.217,0.361,0.337,0.320,0.175,0.107,south,4.2,No
2017/07/28,22:20,0.357,0.214,0.362,0.334,0.321,0.176,0.108,south,3.1,No
2017/07/28,22:30,0.358,0.216,0.360,0.337,0.325,0.177,0.108,south,3.3,No
2017/07/28,22:40,0.355,0.218,0.357,0.338,0.323,0.177,0.108,south-southwest,2.6,No
2017/07/28,22:50,0.354,0.216,0.361,0.334,0.321,0.176,0.107,south-southwest,1.6,No
2017/07/28,23:00,0.357,0.216,0.360,0.334,0.324,0.177,0.108,southwest,1.4,No
2017/07/28,23:10,0.358,0.219,0.358,0.339,0.324,0.176,0.109,southwest,1.2,No
2017/07/28,23:20,0.353,0.217,0.361,0.337,0.319,0.175,0.108,southwest,0.8,No
2017/07/28,23:30,0.357,0.217,0.361,0.334,0.323,0.177,0.108,-,CALM,No
2017/07/28,23:40,0.358,0.219,0.359,0.336,0.325,0.178,0.109,southwest,0.6,No
2017/07/28,23:50,0.353,0.218,0.358,0.336,0.323,0.175,0.108,northwest,0.5,Yes
